Klamath Falls, OR

6:02 PM PDT on March 23, 2017 (GMT -0700)
Klamath Falls International

Weather History for KLMT - May, 2012

Change the Weather History Date:

Tuesday, May 8, 2012

  Actual Average Record
Temperature  
Mean Temperature 57 °F 49 °F  
Max Temperature 79 °F 63 °F 84 °F (1969)
Min Temperature 35 °F 35 °F 22 °F (2002)
Degree Days  
Heating Degree Days 8 16  
Month to date heating degree days 148 134  
Since 1 July heating degree days 6291 6453  
Cooling Degree Days 0 0  
Month to date cooling degree days 0 0  
Year to date cooling degree days 0 0  
Growing Degree Days 6 (Base 50)    
Moisture  
Dew Point 35 °F    
Average Humidity 52    
Maximum Humidity 89    
Minimum Humidity 15    
Precipitation  
Precipitation 0.00 in 0.07 in 0.79 in (2005)
Month to date precipitation 0.06 0.56  
Year to date precipitation 4.59 6.97  
Sea Level Pressure  
Sea Level Pressure 30.04 in    
Wind  
Wind Speed 4 mph (NW)    
Max Wind Speed 23 mph    
Max Gust Speed 26 mph    
Visibility 10 miles    
Events      
T = Trace of Precipitation, MM = Missing Value Source: NWS Daily Summary

Daily Weather History Graph

Daily Weather History Graph

Search for Another Location

Airport or City:

Trip Planner

Search our weather history database for the weather conditions in past years. The results will help you decide how hot, cold, wet, or windy it might be!

Date:

Astronomy

May. 08, 2012 Rise Set
Actual Time 5:53 AM PDT 8:14 PM PDT
Civil Twilight 5:21 AM PDT 8:45 PM PDT
Nautical Twilight 4:42 AM PDT 9:24 PM PDT
Astronomical Twilight 3:59 AM PDT 10:08 PM PDT
Moon 11:30 PM PDT (5/8) 8:05 AM PDT (5/8)
Length of Visible Light 15h 24m
Length of Day
14h 21m
Waning Gibbous, 90% of the Moon is Illuminated
May 8
Waning Gibbous
May 12
Last Quarter
May 20
New
May 28
First Quarter
Jun 4
Full

Hourly Weather History & Observations

Time (PDT) Temp. Windchill Dew Point Humidity Pressure Visibility Wind Dir Wind Speed Gust Speed Precip Events Conditions
12:53 AM 42.1 °F - 35.1 °F 76% 30.11 in 10.0 mi Calm Calm - N/A   Clear
1:53 AM 37.9 °F - 33.1 °F 83% 30.11 in 10.0 mi Calm Calm - N/A   Clear
2:53 AM 37.9 °F - 34.0 °F 86% 30.10 in 10.0 mi Calm Calm - N/A   Clear
3:53 AM 37.9 °F - 33.1 °F 83% 30.11 in 10.0 mi Calm Calm - N/A   Clear
4:53 AM 35.1 °F - 30.9 °F 85% 30.10 in 10.0 mi Calm Calm - N/A   Clear
5:53 AM 35.1 °F - 32.0 °F 89% 30.10 in 10.0 mi Calm Calm - N/A   Clear
6:00 AM 35.6 °F - 30.2 °F 81% 30.16 in 10.0 mi Calm Calm - N/A   Scattered Clouds
6:53 AM 39.9 °F 37.8 °F 35.1 °F 83% 30.10 in 10.0 mi ESE 3.5 mph - N/A   Scattered Clouds
7:53 AM 48.9 °F - 39.0 °F 69% 30.10 in 10.0 mi Calm Calm - N/A   Scattered Clouds
8:53 AM 54.0 °F - 42.1 °F 64% 30.11 in 10.0 mi Variable 3.5 mph - N/A   Scattered Clouds
9:53 AM 61.0 °F - 39.0 °F 44% 30.09 in 10.0 mi Calm Calm - N/A   Scattered Clouds
10:53 AM 64.0 °F - 37.9 °F 38% 30.09 in 10.0 mi Calm Calm - N/A   Scattered Clouds
11:53 AM 69.1 °F - 34.0 °F 27% 30.06 in 10.0 mi Calm Calm - N/A   Scattered Clouds
12:53 PM 72.0 °F - 28.9 °F 20% 30.04 in 10.0 mi Calm Calm - N/A   Scattered Clouds
1:53 PM 73.9 °F - 23.0 °F 15% 30.02 in 10.0 mi Calm Calm - N/A   Scattered Clouds
2:53 PM 75.0 °F - 30.9 °F 20% 30.00 in 10.0 mi Variable 4.6 mph - N/A   Scattered Clouds
3:53 PM 77.0 °F - 30.0 °F 18% 29.97 in 10.0 mi Variable 6.9 mph - N/A   Mostly Cloudy
4:53 PM 78.1 °F - 27.0 °F 15% 29.96 in 10.0 mi Variable 5.8 mph - N/A   Mostly Cloudy
5:53 PM 75.9 °F - 28.0 °F 17% 29.95 in 10.0 mi West 10.4 mph - N/A   Mostly Cloudy
6:53 PM 73.9 °F - 35.1 °F 24% 29.94 in 10.0 mi NNW 18.4 mph 25.3 mph N/A   Mostly Cloudy
7:53 PM 69.1 °F - 39.0 °F 33% 29.95 in 10.0 mi NNW 15.0 mph - N/A   Mostly Cloudy
8:53 PM 64.0 °F - 44.1 °F 48% 29.96 in 10.0 mi NW 11.5 mph - N/A   Scattered Clouds
9:53 PM 60.1 °F - 45.0 °F 57% 29.97 in 7.0 mi NW 4.6 mph - N/A   Partly Cloudy
10:53 PM 55.9 °F - 43.0 °F 62% 29.99 in 10.0 mi WNW 6.9 mph - N/A   Clear
11:53 PM 55.0 °F - 43.0 °F 64% 29.99 in 10.0 mi WNW 6.9 mph - N/A   Clear